Location: Unspecified
(0.0000°N, 0.0000°E)
Time: 02:16:38
(UTC+02:00)

Vanguard 1 - Visible Passes

Search period start: 31 March 2015 00:00
Search period end: 10 April 2015 00:00
Orbit: 653 x 3833 km, 34.2° (Epoch: 30 March)

Date Brightness Start Highest point End Pass type
(mag) Time Alt. Az. Time Alt. Az. Time Alt. Az.
31 Mar 13.5 00:53:22 10° WNW 01:34:04 - SE 00:55:06 16° WNW visible
31 Mar 13.8 03:46:47 24° S 03:46:47 24° S 03:56:53 10° SSE visible
31 Mar 13.9 05:59:30 10° SW 06:12:40 18° S 06:23:48 10° SE visible
31 Mar 12.6 20:36:56 10° N 20:42:11 17° NE 20:49:57 10° ENE visible
31 Mar 11.8 22:53:37 10° NW 23:02:42 65° N 23:02:42 65° N visible
01 Apr 13.7 01:53:53 - SE 01:53:53 - SE 01:15:28 10° WNW visible
01 Apr 13.8 04:06:36 23° S 04:06:36 23° S 04:18:52 10° SSE visible
01 Apr 13.8 06:23:15 10° SW 06:36:38 18° S 06:47:28 10° SE visible
01 Apr 12.3 20:56:48 10° NNW 21:03:43 26° NE 21:10:21 18° E visible
01 Apr 12.0 23:14:49 10° NW 23:23:07 63° NW 23:23:07 63° NW visible
02 Apr 14.0 02:13:44 11° SE 02:13:44 11° SE 02:14:33 10° SE visible
02 Apr 13.8 04:26:27 21° S 04:26:27 21° S 04:41:18 10° SSE visible
02 Apr 13.8 06:46:25 10° SSW 07:00:24 20° S 07:11:22 10° SE visible
02 Apr 11.9 21:17:10 10° NNW 21:25:04 38° NE 21:30:48 28° E visible
02 Apr 12.3 23:36:16 10° WNW 23:43:34 51° W 23:43:34 51° W visible
03 Apr 14.1 02:33:36 14° SSE 02:33:36 14° SSE 02:36:17 10° SE visible
03 Apr 13.8 04:46:19 19° SSW 04:50:35 20° S 05:04:21 10° SE visible
03 Apr 13.6 07:08:51 10° SSW 07:23:55 24° SSE 07:35:03 10° ESE visible
03 Apr 11.6 21:37:50 10° NW 21:46:22 53° NE 21:51:17 39° E visible
03 Apr 12.6 23:58:02 10° WNW 00:04:03 37° W 00:04:03 37° W visible
04 Apr 14.0 02:53:29 16° SSE 02:53:29 16° SSE 02:58:15 10° SSE visible
04 Apr 13.9 05:06:13 16° SSW 05:14:47 19° S 05:28:04 10° SE visible
04 Apr 13.4 07:30:49 10° SSW 07:47:09 29° SSE 07:58:20 10° ESE visible
04 Apr 11.4 21:58:45 10° NW 22:07:45 73° NE 22:11:48 52° ESE visible
05 Apr 13.0 00:20:10 10° W 00:24:35 26° W 00:24:35 26° W visible
05 Apr 14.0 03:13:24 18° SSE 03:13:24 18° SSE 03:20:35 10° SSE visible
05 Apr 13.9 05:26:09 13° SSW 05:38:53 21° S 05:52:10 10° SE visible
05 Apr 11.5 22:19:56 10° NW 22:29:18 86° SW 22:32:20 63° SE visible
06 Apr 13.4 00:42:43 10° W 01:20:39 - SE 00:45:08 17° WSW visible
06 Apr 13.9 03:33:23 19° S 03:33:23 19° S 03:43:30 10° SE visible
06 Apr 13.8 05:46:28 10° SSW 06:02:46 23° SSE 06:16:17 10° ESE visible
06 Apr 11.6 20:22:37 10° NNW 20:29:01 35° NE 20:40:05 10° ESE visible
06 Apr 11.8 22:41:23 10° WNW 22:51:08 66° SSW 22:52:54 62° S visible
07 Apr 13.7 01:40:40 - SE 01:40:40 - SE 01:05:41 10° WSW visible
07 Apr 13.9 03:53:24 20° S 03:53:24 20° S 04:07:08 10° SE visible
07 Apr 13.6 06:08:45 10° SSW 06:26:22 28° SSE 06:40:04 10° ESE visible
07 Apr 11.2 20:43:14 10° NW 20:50:12 52° NE 21:00:41 16° ESE visible
07 Apr 12.2 23:03:09 10° WNW 23:13:16 50° SSW 23:13:28 50° SSW visible
08 Apr14.002:00:46SE02:00:46SE01:26:15WSWvisible
08 Apr 13.9 04:13:30 20° S 04:16:34 20° S 04:31:26 10° SE visible
08 Apr 13.5 06:30:41 10° SW 06:49:40 34° SSE 07:03:20 10° E visible
08 Apr 11.0 21:04:08 10° NW 21:11:29 75° NE 21:21:16 21° ESE visible
08 Apr 12.5 23:25:17 10° W 23:34:02 38° SW 23:34:02 38° SW visible
09 Apr 14.2 02:20:55 11° SSE 02:20:55 11° SSE 02:21:22 10° SSE visible
09 Apr 13.8 04:33:40 19° S 04:40:42 22° S 04:55:59 10° ESE visible
09 Apr 13.2 06:52:26 10° SW 07:12:38 42° SSE 07:26:07 10° E visible
09 Apr 11.2 21:25:19 10° WNW 21:32:57 79° SW 21:41:48 26° SE visible
